Погода в Онешти

Румыния     46°15′21″N   26°46′32″E
темп.,
°C
ветер,
м/с
пор.,
м/с
влажн.,
%
обл.,
%
осадки,
мм/ч
давл.,
гПа
погр.,
м
11 мая, вт
вт1100:00+8з11840 0.0 102110
03:00+7зюз00880 0.0 102110
06:00+6з11900 0.0 102110
09:00+12св11720 0.0 1021348
12:00+17в33520 0.0 10191097
15:00+19в44440 0.0 10171398
18:00+18вюв33480 0.0 10161102
21:00+12ю11640 0.0 101610
12 мая, ср
ср1200:00+9зюз22700 0.0 101614
03:00+9з22700 0.0 101515
06:00+8зюз227028 0.0 101316
09:00+14св21595 0.0 1012313
12:00+17в446679 0.2 10111293
15:00+15в668299 1.9 1010869
18:00+12в4792100 0.8 1010627
21:00+11в2394100 1.0 1011212
13 мая, чт
чт1300:00+10в2398100 0.2 1010302
03:00+10вюв2498100 0.2 1009400
06:00+10юв2494100 0.0 1008402
09:00+12ююв3581100 0.0 1007599
12:00+13юв5775100 0.0 1007749
15:00+13ююв3579100 0.1 1007504
18:00+16юв336319 0.0 10051066
21:00+11юв119043 0.0 100613
14 мая, пт
пт1400:00+9юз229153 0.0 100618
03:00+10ююз2285100 0.0 100617
06:00+11юз2284100 0.0 100626
09:00+15зюз356884 0.0 1007604
12:00+18юз345172 0.0 10071461
15:00+20зюз564894 0.0 10072055
18:00+19зюз565765 0.0 10071135
21:00+11зюз348359 0.0 100956
15 мая, сб
сб1500:00+9зюз349034 0.0 101150
03:00+8зюз339194 0.0 101134
06:00+9зюз238861 0.0 101231
09:00+16з12648 0.0 1011394
12:00+20всв334845 0.0 10101633
15:00+21юв5546100 0.0 10091520
18:00+20вюв465311 0.0 10081005
21:00+14ююв1275100 0.0 100812